Torna al catalogo

PRAETORIAN SDA_516

AttivoPO
NORAD 100074·PAYLOAD·🇺🇸 United States

Lanciato Jul 16, 2026 da Vandenberg Space Force Base

Loading…

Prossimi Passaggi (prossime 24 ore)

TLE

AggiornatoSource: Space-Track

Epoca: Sep 14, 2026, 07:14 UTC

1 A0074U 26163R   26257.30189512  .00000167  00000-0  13350-3 0  9999
2 A0074  81.4784 255.5624 0017965  57.5248 302.7644 13.86229684  8242

Traccia PRAETORIAN SDA_516 in tempo reale con AllMySat

Download on the App Store